Location: Artiguedieu
(43.5000°N, 0.5454°E)
Time: 20:56:20
(UTC+00:00)

Transit 2A - Pass Details

Date: 29 July 2021
Orbit: 594 x 964 km, 66.7° (Epoch: 28 September)

Event Time Altitude Azimuth Distance (km) Brightness Sun altitude
Rises 06:53:05 0° 209° (SSW) 2,820 8.6 21.4°
Reaches altitude 10° 06:55:16 10° 210° (SSW) 1,933 7.8 21.8°
Maximum altitude 06:59:35 89° 125° (SE) 624 6.0 22.6°
Drops below altitude 10° 07:04:13 10° 32° (NNE) 2,065 8.8 23.4°
Sets 07:06:36 0° 32° (NNE) 3,032 9.6 23.9°
